Location: Newark
(41.0400°S, 62.7845°W)
Time: 00:28:14
(UTC+00:00)

Vanguard 2 - Pass Details

Date: 05 December 2021
Orbit: 554 x 2935 km, 32.9° (Epoch: 27 January)

Event Time Altitude Azimuth Distance (km) Brightness Sun altitude
Rises 04:58:30 0° 295° (WNW) 6,734 12.0 -25.2°
Reaches altitude 10° 05:03:03 10° 298° (WNW) 5,767 11.6 -25.0°
Maximum altitude 05:20:17 59° 11° (N) 2,940 10.1 -24.0°
Drops below altitude 10° 05:33:12 10° 85° (E) 4,447 11.6 -23.1°
Sets 05:36:12 0° 88° (E) 5,167 12.0 -22.9°
